STARLINK-2200 (47414 NORAD) Tracking and Keplerian Element Data

This shows tracking and keplerian element data for the satellite.

Feedback or suggestion? Click here.




ElementValue
Catalog47414
NameSTARLINK-2200
Epoch Orbit1257
Epoch Day105.67911741
Epoch Year2021
RAAN168.2357
Inclination97.4989
Eccentricity0.0010333
Argument of Perigee0.118
Mean Anonmoly0.0052
Mean Motion15.14324523
Decay Rate-1.498E-05
L11 47414U 21006B 21105.67911741 -.00001498 00000-0 -78155-4 0 9998
L22 47414 97.4989 168.2357 0010333 0.1180 0.0052 15.14324523 12572

Live tracking and technical data element details for STARLINK-2200 (NORAD 47414). STARLINK-2200 can be tracked NOW for your location showing map with azimuth and elevation plus other details from your city location.

Track the satellite on the map from your city or location and see movement details for azimuth, elevation, latitude, longitude, range, height, and movement on the map or in text.







IsCatalogInMostPopularTable: catalog: 47414, numindb: 19
Update: records affected: 1



GetName: 47414 STARLINK-2200

Hit Count: updated at: Fri, 16 Apr 2021 12:03:19 GMT